TimeMDT,TemperatureF,Dew PointF,Humidity,Sea Level PressureIn,VisibilityMPH,Wind Direction,Wind SpeedMPH,Gust SpeedMPH,PrecipitationIn,Events,Conditions,WindDirDegrees,DateUTC
12:53 AM,71.1,57.9,63,29.79,10.0,SSE,3.5,-,N/A,,Clear,160,2013-07-17 06:53:00
1:53 AM,75.9,55.0,48,29.79,10.0,East,6.9,-,N/A,,Clear,100,2013-07-17 07:53:00
2:53 AM,79.0,54.0,42,29.79,10.0,ESE,3.5,-,N/A,,Mostly Cloudy,110,2013-07-17 08:53:00
3:53 AM,72.0,57.9,61,29.83,10.0,WNW,5.8,-,N/A,,Partly Cloudy,300,2013-07-17 09:53:00
4:53 AM,69.1,57.9,68,29.86,10.0,ENE,5.8,-,N/A,,Clear,70,2013-07-17 10:53:00
5:53 AM,66.9,57.9,73,29.89,10.0,ESE,11.5,-,N/A,,Clear,110,2013-07-17 11:53:00
6:53 AM,66.9,57.9,73,29.91,10.0,East,10.4,-,N/A,,Clear,90,2013-07-17 12:53:00
7:53 AM,71.1,59.0,66,29.93,10.0,East,12.7,-,N/A,,Clear,90,2013-07-17 13:53:00
8:53 AM,81.0,39.9,23,29.93,10.0,SW,8.1,-,N/A,,Clear,230,2013-07-17 14:53:00
9:53 AM,82.9,32.0,16,29.94,10.0,SW,12.7,-,N/A,,Clear,230,2013-07-17 15:53:00
10:53 AM,89.1,35.1,15,29.94,10.0,WSW,11.5,-,N/A,,Clear,240,2013-07-17 16:53:00
11:53 AM,89.1,43.0,20,29.94,10.0,Calm,Calm,-,N/A,,Clear,0,2013-07-17 17:53:00
12:53 PM,93.9,48.0,21,29.93,10.0,WNW,11.5,-,N/A,,Clear,290,2013-07-17 18:53:00
1:53 PM,93.0,54.0,27,29.91,10.0,WNW,15.0,21.9,N/A,,Clear,290,2013-07-17 19:53:00
2:53 PM,95.0,51.1,22,29.90,10.0,WNW,16.1,21.9,N/A,,Clear,290,2013-07-17 20:53:00
3:53 PM,96.1,48.9,20,29.89,10.0,WNW,16.1,24.2,N/A,,Clear,290,2013-07-17 21:53:00
4:53 PM,96.1,52.0,22,29.87,10.0,NW,12.7,-,N/A,,Clear,310,2013-07-17 22:53:00
5:53 PM,97.0,44.1,16,29.86,10.0,NW,11.5,-,N/A,,Clear,320,2013-07-17 23:53:00
6:53 PM,93.9,43.0,17,29.87,10.0,NW,8.1,-,N/A,,Clear,320,2013-07-18 00:53:00
7:53 PM,91.9,42.1,18,29.87,10.0,NNW,5.8,-,N/A,,Clear,330,2013-07-18 01:53:00
8:53 PM,86.0,43.0,22,29.88,10.0,West,4.6,-,N/A,,Clear,270,2013-07-18 02:53:00
9:53 PM,81.0,41.0,24,29.90,10.0,SW,8.1,-,N/A,,Clear,230,2013-07-18 03:53:00
10:53 PM,73.0,42.1,33,29.92,10.0,SW,6.9,-,N/A,,Clear,220,2013-07-18 04:53:00
11:53 PM,77.0,37.0,24,29.92,10.0,SSW,12.7,-,N/A,,Clear,200,2013-07-18 05:53:00